This is the latest recevied weather packets stored in our database for station/object KF0DL. If no packets are shown the sender has not sent any weather packets the latest 10 day(s).
| Time | Temp. | Humidity | Pressure | Rain* | Wind** | Luminosity | Snow |
|---|---|---|---|---|---|---|---|
| 1777647200 | 6.67° C | 48% | 1024.5 hPa | 0 mm | - | - | - |
| 1777646906 | 6.67° C | 49% | 1024.5 hPa | 0 mm | - | - | - |
| 1777646613 | 6.11° C | 49% | 1024.5 hPa | 0 mm | - | - | - |
| 1777646300 | 6.11° C | 51% | 1024.6 hPa | 0 mm | - | - | - |
| 1777646011 | 5.56° C | 52% | 1024.6 hPa | 0 mm | - | - | - |
| 1777645719 | 5.56° C | 53% | 1024.6 hPa | 0 mm | - | - | - |
| 1777645407 | 5° C | 54% | 1023.9 hPa | 0 mm | - | - | - |
| 1777645113 | 5° C | 54% | 1023.9 hPa | 0 mm | - | - | - |
| 1777644801 | 4.44° C | 54% | 1023.9 hPa | 0 mm | - | - | - |
| 1777644506 | 4.44° C | 55% | 1024.8 hPa | 0 mm | - | - | - |
| 1777644215 | 3.89° C | 56% | 1024.8 hPa | 0 mm | - | - | - |
| 1777643900 | 3.89° C | 56% | 1024.9 hPa | 0 mm | - | - | - |
| 1777643609 | 3.33° C | 57% | 1023.9 hPa | 0 mm | - | - | - |
| 1777643315 | 3.33° C | 58% | 1023.9 hPa | 0 mm | - | - | - |
| 1777643006 | 2.78° C | 59% | 1023.9 hPa | 0 mm | - | - | - |
| 1777642712 | 2.78° C | 60% | 1023.8 hPa | 0 mm | - | - | - |
| 1777642400 | 2.22° C | 61% | 1023.8 hPa | 0 mm | - | - | - |
| 1777642107 | 2.22° C | 62% | 1023.8 hPa | 0 mm | - | - | - |
| 1777641815 | 1.67° C | 64% | 1024 hPa | 0 mm | - | - | - |
| 1777641502 | 1.67° C | 64% | 1024 hPa | 0 mm | - | - | - |
| 1777641208 | 1.11° C | 65% | 1024 hPa | 0 mm | - | - | - |
| 1777640916 | 1.11° C | 65% | 1023.9 hPa | 0 mm | - | - | - |
| 1777640602 | 1.11° C | 65% | 1023.9 hPa | 0 mm | - | - | - |
| 1777640313 | 0.56° C | 65% | 1023.9 hPa | 0 mm | - | - | - |
| 1777640000 | 0.56° C | 66% | 1023.9 hPa | 0 mm | - | - | - |
* Rain latest hour (hover to see other rain measurements)
** Current wind speed in m/s (hover to see current wind gust speed)